Russian LEO Navigation
NORAD ID: 26818
Int'l Code: 2001-023A
Perigee: 969.5 km
Apogee: 1,016.6 km
Inclination: 82.9 °
Period: 104.8 minutes
Semi major axis: 7364 km
Launch date: June 8, 2001
Source: Commonwealth of Independent States (former USSR) (CIS)
Comments: Normally part of a six-satellite constellation.
Two Line Element Set (TLE):
1 26818U 01023A 13169.05568393 .00000029 00000-0 15327-4 0 4022
2 26818 082.9259 139.1369 0031939 304.9457 054.8698 13.73813227603041
Source: AFSPC
NASA's NSSDC Master Catalog entry for COSMOS 2378